TimeCST,TemperatureF,Dew PointF,Humidity,Sea Level PressureIn,VisibilityMPH,Wind Direction,Wind SpeedMPH,Gust SpeedMPH,PrecipitationIn,Events,Conditions,WindDirDegrees,DateUTC
12:53 AM,36.0,32.0,86,30.39,10.0,Calm,Calm,-,N/A,,Clear,0,2013-11-07 06:53:00
1:53 AM,35.1,30.9,85,30.39,10.0,Calm,Calm,-,N/A,,Clear,0,2013-11-07 07:53:00
2:53 AM,34.0,30.9,89,30.41,10.0,Calm,Calm,-,N/A,,Clear,0,2013-11-07 08:53:00
3:53 AM,34.0,30.9,89,30.41,10.0,Calm,Calm,-,N/A,,Clear,0,2013-11-07 09:53:00
4:53 AM,34.0,30.0,85,30.41,10.0,Calm,Calm,-,N/A,,Clear,0,2013-11-07 10:53:00
5:53 AM,30.9,28.9,92,30.44,10.0,Calm,Calm,-,N/A,,Clear,0,2013-11-07 11:53:00
6:01 AM,32.0,28.9,88,30.43,10.0,Calm,Calm,-,N/A,,Partly Cloudy,0,2013-11-07 12:01:00
6:53 AM,30.0,28.0,92,30.45,7.0,Calm,Calm,-,N/A,Fog,Shallow Fog,0,2013-11-07 12:53:00
7:53 AM,36.0,33.1,89,30.45,10.0,Calm,Calm,-,N/A,,Partly Cloudy,0,2013-11-07 13:53:00
8:53 AM,45.0,37.9,76,30.46,10.0,South,5.8,-,N/A,,Clear,180,2013-11-07 14:53:00
9:53 AM,50.0,36.0,59,30.46,10.0,WSW,4.6,-,N/A,,Clear,240,2013-11-07 15:53:00
10:53 AM,55.0,37.0,51,30.45,10.0,Calm,Calm,-,N/A,,Clear,0,2013-11-07 16:53:00
11:53 AM,59.0,37.0,44,30.43,10.0,Calm,Calm,-,N/A,,Clear,0,2013-11-07 17:53:00
12:53 PM,61.0,37.0,41,30.40,10.0,West,5.8,-,N/A,,Clear,270,2013-11-07 18:53:00
1:53 PM,63.0,35.1,35,30.38,10.0,Calm,Calm,-,N/A,,Partly Cloudy,0,2013-11-07 19:53:00
2:53 PM,64.0,33.1,31,30.36,10.0,Calm,Calm,-,N/A,,Partly Cloudy,0,2013-11-07 20:53:00
3:53 PM,64.9,30.9,28,30.35,10.0,Calm,Calm,-,N/A,,Partly Cloudy,0,2013-11-07 21:53:00
4:53 PM,62.1,32.0,32,30.35,10.0,South,4.6,-,N/A,,Partly Cloudy,180,2013-11-07 22:53:00
5:53 PM,55.9,34.0,44,30.36,10.0,SSE,4.6,-,N/A,,Partly Cloudy,150,2013-11-07 23:53:00
6:53 PM,50.0,36.0,59,30.37,10.0,SSE,5.8,-,N/A,,Partly Cloudy,150,2013-11-08 00:53:00
7:53 PM,52.0,36.0,54,30.36,10.0,South,5.8,-,N/A,,Clear,170,2013-11-08 01:53:00
8:53 PM,52.0,35.1,53,30.35,10.0,South,6.9,-,N/A,,Clear,170,2013-11-08 02:53:00
9:53 PM,51.1,35.1,54,30.35,10.0,South,6.9,-,N/A,,Clear,180,2013-11-08 03:53:00
10:53 PM,48.0,35.1,61,30.34,10.0,South,6.9,-,N/A,,Clear,180,2013-11-08 04:53:00
11:53 PM,46.0,35.1,66,30.33,10.0,SSE,4.6,-,N/A,,Clear,160,2013-11-08 05:53:00